Stations météo

réclame
Mon MeteoGroup
Lanveoc Poulmic, France (7109): Température de l'air & dewpoint: 19.09.2018 10:00:00 - 25.09.2018 10:00:00 (CEST)Lanveoc Poulmic, France (7109): Température de l'air 5cm: 19.09.2018 10:00:00 - 25.09.2018 10:00:00 (CEST)Lanveoc Poulmic, France (7109): Vitesse du vent & gusts: 19.09.2018 10:00:00 - 25.09.2018 10:00:00 (CEST)Lanveoc Poulmic, France (7109): Direction du vent: 19.09.2018 10:00:00 - 25.09.2018 10:00:00 (CEST)Lanveoc Poulmic, France (7109): reduced air pressure: 19.09.2018 10:00:00 - 25.09.2018 10:00:00 (CEST)Lanveoc Poulmic, France (7109): visibility: 19.09.2018 10:00:00 - 25.09.2018 10:00:00 (CEST)Lanveoc Poulmic, France (7109): Quantités de précipitations: 19.09.2018 10:00:00 - 25.09.2018 10:00:00 (CEST)
Date & Time tt [°C] td [°C] tt 5cm [°C] ff [km/h] ff [knt] fx [km/h] fx [knt] dd ppp [hPa] vv [km] rr [mm]
25.09.2018 10:00:00 - - - - - - - - - - -
25.09.2018 09:00:00 9,8 6,3 7,4 10 6 22 12 ENE 1036,8 39 0,0
25.09.2018 08:00:00 8,4 6,7 6,7 11 6 18 10 NE 1036,5 56 0,0
25.09.2018 07:00:00 8,6 6,0 7,4 12 7 22 12 ENE 1036,2 60 0,0
25.09.2018 06:00:00 9,7 7,1 8,4 14 7 25 13 E 1036,5 60 0,0
25.09.2018 05:00:00 9,7 7,1 8,5 13 7 23 13 ENE 1036,6 60 0,0
25.09.2018 04:00:00 9,8 7,9 7,8 9 5 15 8 E 1037,1 59 0,0
25.09.2018 03:00:00 10,0 7,2 8,7 8 4 23 12 NE 1037,3 60 0,0
25.09.2018 02:00:00 10,3 7,4 7,1 9 5 21 11 E 1037,2 60 0,0
25.09.2018 01:00:00 10,3 6,4 9,1 9 5 22 12 ENE 1037,9 60 0,0
25.09.2018 00:00:00 10,5 7,6 9,2 8 4 21 11 ENE 1037,9 60 0,0
24.09.2018 23:00:00 11,1 7,2 10,0 12 7 26 14 ENE 1037,7 60 0,0
24.09.2018 22:00:00 11,3 7,6 10,5 13 7 27 14 NE 1037,7 60 0,0
24.09.2018 21:00:00 12,0 7,3 11,3 15 8 29 15 NNE 1037,4 60 0,0
24.09.2018 20:00:00 13,0 7,2 12,6 15 8 30 16 NNE 1037,0 57 0,0
24.09.2018 19:00:00 14,5 7,8 14,5 16 9 29 16 NNE 1036,7 50 0,0
24.09.2018 18:00:00 15,8 7,3 18,5 16 9 32 17 NE 1036,5 41 0,0
24.09.2018 17:00:00 16,7 8,1 19,4 16 8 29 16 NE 1036,8 20 0,0
24.09.2018 16:00:00 17,0 7,3 21,0 16 9 28 15 NNE 1037,3 42 0,0
24.09.2018 15:00:00 16,8 7,2 19,2 14 8 24 13 NE 1037,6 45 0,0
24.09.2018 14:00:00 16,0 6,7 18,7 12 6 27 14 NE 1038,1 37 0,0
24.09.2018 13:00:00 15,9 6,9 17,4 13 7 29 15 NE 1038,4 20 0,0
24.09.2018 12:00:00 14,8 6,9 17,5 14 7 28 15 ENE 1038,4 20 0,0
24.09.2018 11:00:00 13,8 8,0 16,5 9 5 17 9 ENE 1038,7 20 0,0
24.09.2018 10:00:00 12,6 8,7 9,6 7 4 17 9 NE 1038,1 20 0,0
24.09.2018 09:00:00 10,0 7,8 8,1 7 4 21 11 ENE 1037,4 51 0,0
24.09.2018 08:00:00 9,7 7,1 8,1 9 5 18 10 NE 1036,6 53 0,0
24.09.2018 07:00:00 9,9 7,1 7,3 10 5 19 11 NNE 1036,0 55 0,0
24.09.2018 06:00:00 9,1 5,8 7,5 9 5 18 10 N 1036,1 60 0,0
24.09.2018 05:00:00 9,3 5,3 7,6 8 4 20 11 NNE 1035,9 60 0,0
24.09.2018 04:00:00 9,4 5,4 8,1 12 7 23 12 N 1035,7 60 0,0
24.09.2018 03:00:00 9,9 5,3 8,8 14 8 30 16 N 1035,3 60 0,0
24.09.2018 02:00:00 10,1 5,1 9,1 15 8 30 16 N 1034,7 60 0,0
24.09.2018 01:00:00 10,6 5,4 9,0 18 10 34 18 N 1034,2 60 0,0
24.09.2018 00:00:00 10,7 5,7 9,4 13 7 27 15 N 1033,6 60 0,0
23.09.2018 23:00:00 10,9 5,8 9,7 19 10 32 17 N 1032,8 59 0,0
23.09.2018 22:00:00 11,3 6,4 10,5 22 12 37 20 N 1031,9 56 0,0
23.09.2018 21:00:00 11,6 7,1 10,8 23 12 44 24 N 1030,7 51 0,0
23.09.2018 20:00:00 12,3 8,2 11,9 16 9 40 22 N 1029,6 59 0,0
23.09.2018 19:00:00 12,8 7,5 12,7 24 13 41 22 NNE 1028,5 37 0,0
23.09.2018 18:00:00 14,2 7,7 13,3 27 15 51 28 N 1027,3 27 0,0
23.09.2018 17:00:00 14,4 10,0 14,1 26 14 49 27 NNE 1025,7 36 0,0
23.09.2018 16:00:00 13,4 10,9 13,7 25 13 44 24 N 1024,7 19 0,0
23.09.2018 15:00:00 14,0 10,6 15,2 28 15 50 27 N 1023,3 30 0,0
23.09.2018 14:00:00 14,4 12,8 15,2 24 13 49 26 N 1021,5 39 0,0
23.09.2018 13:00:00 13,9 13,3 14,6 24 13 40 21 N 1020,1 13 0,0
23.09.2018 12:00:00 13,9 13,6 14,3 19 10 52 28 NNW 1018,6 47 0,2
23.09.2018 11:00:00 17,3 17,3 15,8 29 16 46 25 W 1016,8 20 0,0
23.09.2018 10:00:00 17,0 17,0 15,0 29 16 46 25 WSW 1016,0 11 0,0
23.09.2018 09:00:00 17,0 17,0 15,2 26 14 49 26 WSW 1015,6 0,7 0,2
23.09.2018 08:00:00 17,1 17,1 14,9 25 13 52 28 WSW 1015,4 0,5 0,4
23.09.2018 07:00:00 17,2 17,2 15,2 29 15 49 26 WSW 1015,7 0,3 0,2
23.09.2018 06:00:00 17,2 17,2 14,8 29 16 44 24 WSW 1015,9 0,4 0,4
23.09.2018 05:00:00 17,2 17,2 15,1 26 14 43 23 SW 1016,1 0,4 0,2
23.09.2018 04:00:00 17,2 17,2 14,8 27 15 49 26 WSW 1016,4 0,4 0,4
23.09.2018 03:00:00 17,4 17,4 15,5 31 17 50 27 WSW 1016,8 0,3 0,2
23.09.2018 02:00:00 17,4 17,4 14,7 29 15 51 28 WSW 1016,9 0,2 0,2
23.09.2018 01:00:00 17,5 17,5 15,0 28 15 48 26 WSW 1016,8 0,2 0,2
23.09.2018 00:00:00 17,5 17,5 15,6 27 15 47 25 SW 1016,6 0,2 0,0
22.09.2018 23:00:00 17,7 17,7 15,6 30 16 49 26 SW 1016,4 0,3 0,0
22.09.2018 22:00:00 17,6 17,6 15,2 29 15 49 26 SW 1016,4 0,2 0,2
22.09.2018 21:00:00 17,7 17,7 15,3 32 18 52 28 SW 1016,0 0,3 0,0
22.09.2018 20:00:00 17,8 17,8 15,8 31 17 56 31 SW 1015,8 0,5 0,2
22.09.2018 19:00:00 17,8 17,8 15,7 36 19 57 31 SW 1015,4 1,0 0,0
22.09.2018 18:00:00 17,8 17,6 15,1 35 19 61 33 SW 1015,2 1,3 0,0
22.09.2018 17:00:00 17,9 17,7 15,8 36 19 63 34 SW 1015,1 2,7 0,0
22.09.2018 16:00:00 17,8 17,8 16,7 36 20 63 34 SW 1015,3 2,3 0,0
22.09.2018 15:00:00 17,7 17,7 15,0 41 22 61 33 SW 1015,2 1,5 0,6
22.09.2018 14:00:00 16,9 16,9 14,5 27 15 45 24 S 1015,5 2,1 4,3
22.09.2018 13:00:00 14,9 14,7 13,6 27 15 54 29 S 1016,7 1,2 2,6
22.09.2018 12:00:00 13,8 13,5 13,5 32 17 53 28 SSE 1017,3 2,7 0,6
22.09.2018 11:00:00 13,5 12,6 12,7 28 15 51 27 SSE 1018,5 7 0,0
22.09.2018 10:00:00 13,4 12,5 12,0 18 10 33 18 SSE 1019,1 14 0,4
22.09.2018 09:00:00 12,9 11,5 11,6 14 7 32 17 SSE 1020,0 24 0,4
22.09.2018 08:00:00 12,9 10,8 12,2 10 5 17 9 SE 1020,6 17 0,0
22.09.2018 07:00:00 13,0 10,7 11,8 11 6 19 11 SSE 1020,8 33 0,0
22.09.2018 06:00:00 13,0 10,4 12,0 7 4 10 5 SSE 1021,7 40 0,0
22.09.2018 05:00:00 12,9 9,9 11,9 7 4 12 7 S 1022,5 59 0,0
22.09.2018 04:00:00 12,7 10,1 11,5 8 5 13 7 SSW 1022,9 50 0,0
22.09.2018 03:00:00 12,4 10,1 11,3 6 4 10 5 SSW 1022,9 38 0,0
22.09.2018 02:00:00 12,4 9,6 11,2 7 4 11 6 SSW 1023,1 31 0,0
22.09.2018 01:00:00 12,4 9,6 10,8 8 4 11 6 SSW 1023,9 10 0,0
22.09.2018 00:00:00 12,6 9,6 11,4 5 3 9 5 SW 1023,8 38 0,0
21.09.2018 23:00:00 13,1 10,1 12,0 8 4 22 12 WSW 1023,5 43 0,2
21.09.2018 22:00:00 13,6 9,8 11,8 9 5 24 13 WSW 1023,5 10 0,0
21.09.2018 21:00:00 13,0 8,9 11,7 6 3 11 6 SW 1022,7 48 0,0
21.09.2018 20:00:00 14,1 8,3 13,4 9 5 27 14 W 1022,4 58 0,0
21.09.2018 19:00:00 15,2 8,2 15,9 20 11 32 18 W 1021,8 51 0,0
21.09.2018 18:00:00 15,9 7,6 14,9 20 11 36 19 W 1021,4 20 0,0
21.09.2018 17:00:00 17,2 8,1 15,0 24 13 39 21 W 1021,2 26 0,0
21.09.2018 16:00:00 16,7 8,6 15,7 23 12 39 21 W 1021,0 25 0,0
21.09.2018 15:00:00 16,0 8,5 15,2 22 12 39 21 W 1020,5 31 0,0
21.09.2018 14:00:00 15,5 7,8 13,8 24 13 44 24 W 1020,1 48 0,0
21.09.2018 13:00:00 17,3 8,7 16,2 25 14 40 22 WNW 1019,2 19 0,0
21.09.2018 12:00:00 16,2 6,9 16,7 25 14 36 19 W 1018,7 22 0,0
21.09.2018 11:00:00 15,2 8,9 14,1 23 12 35 19 WNW 1017,8 20 0,0
21.09.2018 10:00:00 13,7 8,7 13,4 15 8 26 14 WNW 1016,8 46 0,0
21.09.2018 09:00:00 12,7 9,1 11,1 15 8 24 13 NW 1016,0 31 0,0
21.09.2018 08:00:00 12,0 8,3 11,0 16 8 32 17 NW 1014,7 42 0,0
21.09.2018 07:00:00 12,6 8,3 11,8 22 12 37 20 NW 1013,7 40 0,0
21.09.2018 06:00:00 12,9 9,3 12,2 26 14 49 26 WNW 1012,6 52 0,0
21.09.2018 05:00:00 13,6 9,8 12,7 24 13 48 26 WNW 1011,6 34 0,0
21.09.2018 04:00:00 14,5 10,3 14,1 26 14 53 28 WNW 1010,9 20 0,0
21.09.2018 03:00:00 14,8 11,4 14,2 27 15 51 28 W 1009,9 19 0,0
21.09.2018 02:00:00 15,2 12,7 14,6 26 14 49 26 W 1009,1 18 0,0
21.09.2018 01:00:00 16,1 15,0 15,4 39 21 81 44 W 1007,9 6 1,6
21.09.2018 00:00:00 17,4 17,2 16,3 37 20 64 35 SSW 1006,3 1,0 4,5
20.09.2018 23:00:00 17,3 17,0 16,5 37 20 58 32 SSW 1007,9 2,9 3,4
20.09.2018 22:00:00 17,7 16,7 17,0 35 19 64 35 SSW 1008,8 8 0,0
20.09.2018 21:00:00 18,0 16,7 17,2 36 19 57 31 SSW 1009,5 13 0,0
20.09.2018 20:00:00 17,9 16,6 16,9 36 19 60 32 SSW 1010,3 13 0,0
20.09.2018 19:00:00 18,0 16,7 17,6 31 17 55 30 SSW 1010,7 13 0,0
20.09.2018 18:00:00 18,5 16,8 17,7 30 16 52 28 SSW 1011,5 14 0,0
20.09.2018 17:00:00 18,8 16,9 17,0 27 15 50 27 S 1012,4 12 0,0
20.09.2018 16:00:00 18,7 16,7 17,9 29 16 50 27 SSW 1013,3 15 0,0
20.09.2018 15:00:00 19,1 16,9 18,6 31 17 53 29 SSW 1013,9 16 0,0
20.09.2018 14:00:00 18,9 16,5 18,8 31 17 48 26 SSW 1014,5 16 0,0
20.09.2018 13:00:00 20,0 16,4 19,1 26 14 46 25 SSW 1014,9 15 0,0
20.09.2018 12:00:00 19,6 16,8 17,5 26 14 41 22 S 1015,4 15 0,0
20.09.2018 11:00:00 18,1 16,9 17,4 22 12 37 20 S 1015,8 7 0,0
20.09.2018 10:00:00 17,4 16,8 16,8 21 12 36 19 S 1016,0 9 0,0
20.09.2018 09:00:00 16,8 16,3 15,8 19 11 29 16 S 1016,2 9 0,2
20.09.2018 08:00:00 16,3 16,0 15,2 16 9 27 15 S 1016,1 10 0,0
20.09.2018 07:00:00 16,2 15,7 15,5 16 9 28 15 S 1016,3 9 0,0
20.09.2018 06:00:00 16,4 15,8 15,8 14 8 29 16 S 1016,8 9 0,0
20.09.2018 05:00:00 16,4 15,9 15,6 17 9 30 16 S 1016,8 10 0,0
20.09.2018 04:00:00 16,4 16,1 15,6 16 9 28 15 SSW 1017,3 9 0,0
20.09.2018 03:00:00 16,1 15,8 15,0 16 8 27 14 S 1017,6 9 0,0
20.09.2018 02:00:00 15,8 15,6 15,0 16 9 26 14 S 1017,9 8 0,0
20.09.2018 01:00:00 15,9 15,6 14,8 14 8 23 12 S 1018,0 7 0,0
20.09.2018 00:00:00 16,0 15,5 15,2 15 8 24 13 S 1018,2 8 0,0
19.09.2018 23:00:00 16,4 15,4 15,6 16 9 28 15 SSW 1018,7 12 0,0
19.09.2018 22:00:00 17,2 16,2 16,4 17 9 33 18 SW 1018,5 11 0,0
19.09.2018 21:00:00 17,6 16,8 17,2 16 9 32 17 SSW 1018,4 10 0,0
19.09.2018 20:00:00 18,2 16,5 17,7 16 9 37 20 SSW 1018,3 14 0,0
19.09.2018 19:00:00 19,0 16,6 17,9 24 13 43 23 SSW 1018,3 16 0,0
19.09.2018 18:00:00 19,5 16,5 19,1 27 15 47 26 SSW 1017,9 18 0,0
19.09.2018 17:00:00 20,1 16,9 17,7 27 14 50 27 SSW 1017,9 16 0,0
19.09.2018 16:00:00 20,7 16,9 20,0 35 19 54 29 SW 1018,1 18 0,0
19.09.2018 15:00:00 20,3 16,5 19,2 34 18 53 29 SW 1017,9 19 0,0
19.09.2018 14:00:00 21,0 16,2 17,6 29 16 51 28 SSW 1017,8 18 0,0
19.09.2018 13:00:00 20,7 16,7 18,7 28 15 56 30 SSW 1017,6 19 0,0
19.09.2018 12:00:00 19,9 16,7 19,5 26 14 45 24 SSW 1017,4 18 0,0
19.09.2018 11:00:00 18,3 16,3 17,6 26 14 45 24 S 1017,1 14 0,0
19.09.2018 10:00:00 18,1 16,6 18,0 21 11 40 22 SSW 1016,7 14 0,0

tt = Température de l'air
td = dewpoint
tt 5cm = Température de l'air 5cm
ff = Vitesse du vent
fx = gusts
dd = Direction du vent
ppp = reduced air pressure
vv = visibility
rr = Quantités de précipitations

stations d'obs. à proximité